TAM3177 SBCG-SBSP

Flight info

Callsign TAM3177
Flight time 1h 10m
Altitude 37000
Route UKEVI1A BRAKE DCT ASEPO UM411 UTLOT ORESU1B
Aircraft A320/M-SDE3FGHIRWY/LB1

Departure

Time 2026-05-04 17:39
Airport Campo Grande Airport (SBCG)

Arrival

Time 2026-05-04 18:50
Airport Congonhas–Deputado Freitas Nobre Airport (SBSP)
Time Latitude Longitude Altitude Speed Heading
2026-05-04 17:26 -20.45789 -54.66859 1846 ft 0 kts 354°
2026-05-04 17:30 -20.45818 -54.66973 1846 ft 0 kts 183°
2026-05-04 17:35 -20.45933 -54.67147 1843 ft 18 kts 172°
2026-05-04 17:35 -20.46241 -54.67108 1841 ft 19 kts 171°
2026-05-04 17:35 -20.46395 -54.67103 1839 ft 26 kts 191°
2026-05-04 17:36 -20.46537 -54.67209 1837 ft 21 kts 224°
2026-05-04 17:36 -20.46662 -54.67336 1835 ft 28 kts 224°
2026-05-04 17:36 -20.46826 -54.67494 1832 ft 35 kts 223°
2026-05-04 17:36 -20.46949 -54.67613 1830 ft 25 kts 223°
2026-05-04 17:37 -20.47088 -54.67762 1828 ft 32 kts 221°
2026-05-04 17:37 -20.47241 -54.67896 1825 ft 28 kts 217°
2026-05-04 17:37 -20.47406 -54.68050 1823 ft 35 kts 221°
2026-05-04 17:37 -20.47590 -54.68230 1820 ft 33 kts 221°
2026-05-04 17:38 -20.47735 -54.68359 1817 ft 14 kts 183°
2026-05-04 17:38 -20.47818 -54.68274 1818 ft 18 kts 132°
2026-05-04 17:38 -20.47812 -54.68177 1820 ft 16 kts 35°
2026-05-04 17:38 -20.47662 -54.68036 1822 ft 60 kts 42°
2026-05-04 17:39 -20.46393 -54.66839 2022 ft 162 kts 39°
2026-05-04 17:39 -20.45534 -54.66026 2744 ft 167 kts 38°
2026-05-04 17:39 -20.44672 -54.65232 3471 ft 163 kts 38°
2026-05-04 17:40 -20.43779 -54.64372 3818 ft 185 kts 41°
2026-05-04 17:40 -20.43116 -54.63105 4027 ft 217 kts 80°
2026-05-04 17:40 -20.43326 -54.61401 4423 ft 248 kts 102°
2026-05-04 17:40 -20.43842 -54.59550 4865 ft 273 kts 104°
2026-05-04 17:41 -20.44453 -54.57584 5557 ft 284 kts 106°
2026-05-04 17:41 -20.45092 -54.55588 6532 ft 286 kts 105°
2026-05-04 17:41 -20.45736 -54.53566 7386 ft 290 kts 105°
2026-05-04 17:41 -20.46378 -54.51512 8288 ft 293 kts 105°
2026-05-04 17:42 -20.47015 -54.49435 9222 ft 296 kts 106°
2026-05-04 17:42 -20.47651 -54.47342 10112 ft 299 kts 105°
2026-05-04 17:42 -20.48308 -54.45160 10495 ft 321 kts 106°
2026-05-04 17:42 -20.49006 -54.42825 10903 ft 337 kts 107°
2026-05-04 17:43 -20.49725 -54.40420 11576 ft 343 kts 107°
2026-05-04 17:43 -20.50459 -54.37980 12289 ft 348 kts 107°
2026-05-04 17:43 -20.51205 -54.35502 12961 ft 354 kts 108°
2026-05-04 17:43 -20.51961 -54.32986 13665 ft 358 kts 108°
2026-05-04 17:44 -20.52727 -54.30431 14276 ft 363 kts 108°
2026-05-04 17:44 -20.53501 -54.27847 14858 ft 368 kts 108°
2026-05-04 17:44 -20.54288 -54.25224 15415 ft 374 kts 108°
2026-05-04 17:44 -20.55082 -54.22573 16044 ft 377 kts 108°
2026-05-04 17:45 -20.55882 -54.19896 16661 ft 380 kts 108°
2026-05-04 17:45 -20.56689 -54.17193 17254 ft 385 kts 108°
2026-05-04 17:45 -20.57494 -54.14492 17822 ft 389 kts 108°
2026-05-04 17:45 -20.58320 -54.11724 18370 ft 394 kts 108°
2026-05-04 17:46 -20.59155 -54.08926 18882 ft 397 kts 108°
2026-05-04 17:46 -20.59995 -54.06105 19399 ft 401 kts 109°
2026-05-04 17:46 -20.60842 -54.03260 19916 ft 404 kts 109°
2026-05-04 17:46 -20.61693 -54.00393 20438 ft 406 kts 109°
2026-05-04 17:47 -20.62510 -53.97499 20954 ft 410 kts 105°
2026-05-04 17:47 -20.63123 -53.94516 21479 ft 413 kts 104°
2026-05-04 17:47 -20.63732 -53.91509 21969 ft 416 kts 104°
2026-05-04 17:47 -20.64339 -53.88480 22459 ft 419 kts 104°
2026-05-04 17:48 -20.64948 -53.85425 22933 ft 422 kts 104°
2026-05-04 17:48 -20.65562 -53.82350 23406 ft 426 kts 104°
2026-05-04 17:48 -20.66185 -53.79246 23819 ft 429 kts 104°
2026-05-04 17:48 -20.66815 -53.76118 24210 ft 432 kts 104°
2026-05-04 17:49 -20.67448 -53.72970 24609 ft 435 kts 104°
2026-05-04 17:49 -20.68082 -53.69806 25003 ft 438 kts 104°
2026-05-04 17:49 -20.68720 -53.66619 25390 ft 440 kts 104°
2026-05-04 17:49 -20.69364 -53.63409 25783 ft 443 kts 104°
2026-05-04 17:50 -20.70011 -53.60181 26158 ft 446 kts 104°
2026-05-04 17:50 -20.70442 -53.58034 26411 ft 448 kts 104°
2026-05-04 17:50 -20.71095 -53.54772 26783 ft 451 kts 104°
2026-05-04 17:50 -20.71750 -53.51486 27158 ft 454 kts 104°
2026-05-04 17:51 -20.72406 -53.48181 27545 ft 456 kts 104°
2026-05-04 17:51 -20.73064 -53.44855 27928 ft 459 kts 104°
2026-05-04 17:51 -20.73726 -53.41511 28304 ft 462 kts 104°
2026-05-04 17:51 -20.74393 -53.38144 28676 ft 465 kts 104°
2026-05-04 17:52 -20.75065 -53.34758 29044 ft 467 kts 104°
2026-05-04 17:52 -20.75740 -53.31348 29415 ft 470 kts 104°
2026-05-04 17:52 -20.76415 -53.27922 29783 ft 473 kts 104°
2026-05-04 17:52 -20.77091 -53.24471 30133 ft 476 kts 104°
2026-05-04 17:53 -20.77772 -53.21001 30433 ft 479 kts 105°
2026-05-04 17:53 -20.78458 -53.17511 30728 ft 481 kts 105°
2026-05-04 17:53 -20.79146 -53.14004 31009 ft 484 kts 105°
2026-05-04 17:53 -20.79838 -53.10477 31284 ft 486 kts 105°
2026-05-04 17:54 -20.80535 -53.06930 31556 ft 489 kts 105°
2026-05-04 17:54 -20.81235 -53.03374 31888 ft 489 kts 105°
2026-05-04 17:54 -20.81933 -52.99816 32286 ft 488 kts 105°
2026-05-04 17:54 -20.82631 -52.96268 32675 ft 488 kts 105°
2026-05-04 17:55 -20.83330 -52.92718 33059 ft 488 kts 105°
2026-05-04 17:55 -20.84025 -52.89172 33439 ft 487 kts 105°
2026-05-04 17:55 -20.84742 -52.85635 33824 ft 486 kts 109°
2026-05-04 17:55 -20.85781 -52.82222 34163 ft 482 kts 115°
2026-05-04 17:56 -20.86948 -52.78862 34467 ft 482 kts 115°
2026-05-04 17:56 -20.88114 -52.75501 34758 ft 483 kts 115°
2026-05-04 17:56 -20.89278 -52.72132 35022 ft 483 kts 115°
2026-05-04 17:56 -20.90443 -52.68758 35311 ft 484 kts 115°
2026-05-04 17:57 -20.91605 -52.65387 35587 ft 484 kts 116°
2026-05-04 17:57 -20.92770 -52.62007 35850 ft 484 kts 116°
2026-05-04 17:57 -20.93934 -52.58627 36108 ft 485 kts 116°
2026-05-04 17:57 -20.95103 -52.55244 36349 ft 485 kts 116°
2026-05-04 17:58 -20.96273 -52.51854 36588 ft 486 kts 116°
2026-05-04 17:58 -20.97441 -52.48458 36817 ft 487 kts 116°
2026-05-04 17:58 -20.98597 -52.45101 36973 ft 488 kts 116°
2026-05-04 17:58 -20.99774 -52.41663 37007 ft 485 kts 116°
2026-05-04 17:59 -21.02071 -52.34945 37004 ft 483 kts 116°
2026-05-04 18:00 -21.05538 -52.24832 37015 ft 483 kts 116°
2026-05-04 18:00 -21.07838 -52.18085 37005 ft 482 kts 116°
2026-05-04 18:01 -21.10137 -52.11338 37004 ft 482 kts 116°
2026-05-04 18:01 -21.12440 -52.04588 37003 ft 482 kts 116°
2026-05-04 18:02 -21.15892 -51.94461 37007 ft 482 kts 116°
2026-05-04 18:02 -21.18220 -51.87724 37005 ft 482 kts 117°
2026-05-04 18:03 -21.20563 -51.80998 37026 ft 482 kts 117°
2026-05-04 18:03 -21.22909 -51.74263 37029 ft 483 kts 117°
2026-05-04 18:04 -21.25256 -51.67518 37029 ft 483 kts 116°
2026-05-04 18:05 -21.28770 -51.57406 37030 ft 483 kts 116°
2026-05-04 18:05 -21.31114 -51.50663 37025 ft 483 kts 116°
2026-05-04 18:06 -21.34628 -51.40537 37043 ft 483 kts 116°
2026-05-04 18:06 -21.36900 -51.33753 37046 ft 484 kts 115°
2026-05-04 18:07 -21.39266 -51.27028 37039 ft 474 kts 127°
2026-05-04 18:07 -21.42406 -51.20805 37043 ft 480 kts 120°
2026-05-04 18:08 -21.44831 -51.14102 37043 ft 484 kts 115°
2026-05-04 18:08 -21.46949 -51.07237 37042 ft 485 kts 114°
2026-05-04 18:09 -21.51298 -50.93559 37065 ft 483 kts 116°
2026-05-04 18:10 -21.53557 -50.86757 37064 ft 484 kts 116°
2026-05-04 18:10 -21.55789 -50.79939 37065 ft 484 kts 115°
2026-05-04 18:11 -21.58006 -50.73114 37067 ft 484 kts 115°
2026-05-04 18:11 -21.60227 -50.66296 37068 ft 484 kts 115°
2026-05-04 18:12 -21.62445 -50.59470 37072 ft 484 kts 115°
2026-05-04 18:12 -21.64663 -50.52632 37093 ft 485 kts 115°
2026-05-04 18:13 -21.66877 -50.45789 37094 ft 485 kts 115°
2026-05-04 18:14 -21.70175 -50.35561 37092 ft 485 kts 115°
2026-05-04 18:14 -21.72385 -50.28714 37094 ft 485 kts 115°
2026-05-04 18:15 -21.76791 -50.15009 37106 ft 485 kts 115°
2026-05-04 18:16 -21.78997 -50.08147 37107 ft 485 kts 115°
2026-05-04 18:16 -21.81204 -50.01285 37106 ft 485 kts 115°
2026-05-04 18:17 -21.84489 -49.90976 37102 ft 486 kts 115°
2026-05-04 18:18 -21.87769 -49.80668 37108 ft 485 kts 115°
2026-05-04 18:18 -21.89956 -49.73796 37130 ft 485 kts 115°
2026-05-04 18:19 -21.93239 -49.63481 37136 ft 485 kts 115°
2026-05-04 18:19 -21.95428 -49.56601 37132 ft 486 kts 115°
2026-05-04 18:20 -21.97602 -49.49711 37135 ft 486 kts 115°
2026-05-04 18:20 -21.99773 -49.42813 37133 ft 486 kts 115°
2026-05-04 18:21 -22.01946 -49.35915 37127 ft 486 kts 115°
2026-05-04 18:21 -22.04132 -49.29022 37155 ft 486 kts 115°
2026-05-04 18:22 -22.06309 -49.22118 37163 ft 487 kts 115°
2026-05-04 18:22 -22.08471 -49.15208 37180 ft 487 kts 115°
2026-05-04 18:23 -22.10635 -49.08293 37196 ft 487 kts 115°
2026-05-04 18:23 -22.12788 -49.01420 37207 ft 487 kts 115°
2026-05-04 18:24 -22.14965 -48.94447 37205 ft 487 kts 115°
2026-05-04 18:24 -22.17128 -48.87518 37194 ft 487 kts 115°
2026-05-04 18:25 -22.19275 -48.80629 37184 ft 487 kts 115°
2026-05-04 18:25 -22.21431 -48.73695 37152 ft 487 kts 114°
2026-05-04 18:26 -22.23583 -48.66760 37159 ft 487 kts 115°
2026-05-04 18:26 -22.25736 -48.59829 37152 ft 487 kts 114°
2026-05-04 18:27 -22.27882 -48.52884 37187 ft 488 kts 114°
2026-05-04 18:27 -22.30025 -48.45936 37186 ft 487 kts 114°
2026-05-04 18:28 -22.32172 -48.38996 37180 ft 487 kts 114°
2026-05-04 18:28 -22.34314 -48.32049 37185 ft 488 kts 114°
2026-05-04 18:29 -22.36446 -48.25094 37187 ft 488 kts 114°
2026-05-04 18:29 -22.38575 -48.18138 37192 ft 488 kts 114°
2026-05-04 18:30 -22.41775 -48.07700 37205 ft 488 kts 114°
2026-05-04 18:31 -22.43898 -48.00742 37209 ft 487 kts 114°
2026-05-04 18:31 -22.46021 -47.93778 37209 ft 488 kts 114°
2026-05-04 18:32 -22.48914 -47.87297 37191 ft 471 kts 133°
2026-05-04 18:32 -22.52980 -47.81813 37207 ft 467 kts 137°
2026-05-04 18:33 -22.57078 -47.76365 37230 ft 467 kts 137°
2026-05-04 18:33 -22.61171 -47.70908 37227 ft 467 kts 136°
2026-05-04 18:34 -22.65262 -47.65447 37228 ft 467 kts 137°
2026-05-04 18:34 -22.67326 -47.62703 36582 ft 475 kts 136°
2026-05-04 18:34 -22.69410 -47.59930 35739 ft 471 kts 136°
2026-05-04 18:34 -22.71467 -47.57180 34778 ft 468 kts 136°
2026-05-04 18:35 -22.73508 -47.54446 33654 ft 468 kts 135°
2026-05-04 18:35 -22.75552 -47.51706 32514 ft 466 kts 135°
2026-05-04 18:35 -22.77573 -47.48993 31546 ft 460 kts 136°
2026-05-04 18:35 -22.79571 -47.46309 30647 ft 454 kts 136°
2026-05-04 18:36 -22.80877 -47.44553 30057 ft 450 kts 136°
2026-05-04 18:36 -22.82830 -47.41935 29085 ft 443 kts 136°
2026-05-04 18:36 -22.84752 -47.39360 28155 ft 436 kts 135°
2026-05-04 18:36 -22.86644 -47.36826 27234 ft 429 kts 135°
2026-05-04 18:37 -22.88503 -47.34330 26383 ft 423 kts 134°
2026-05-04 18:37 -22.90337 -47.31863 25511 ft 417 kts 134°
2026-05-04 18:37 -22.92145 -47.29432 24689 ft 411 kts 134°
2026-05-04 18:37 -22.93926 -47.27039 23890 ft 405 kts 134°
2026-05-04 18:38 -22.95686 -47.24673 22982 ft 400 kts 133°
2026-05-04 18:38 -22.97422 -47.22338 22092 ft 396 kts 133°
2026-05-04 18:38 -22.99138 -47.20029 21233 ft 391 kts 133°
2026-05-04 18:38 -23.00891 -47.17804 20393 ft 383 kts 141°
2026-05-04 18:39 -23.02977 -47.16079 19598 ft 372 kts 155°
2026-05-04 18:39 -23.05312 -47.14980 18824 ft 361 kts 168°
2026-05-04 18:39 -23.07742 -47.14405 17965 ft 356 kts 173°
2026-05-04 18:39 -23.10165 -47.13882 17130 ft 353 kts 172°
2026-05-04 18:40 -23.12553 -47.13361 16362 ft 348 kts 172°
2026-05-04 18:40 -23.14905 -47.12840 15631 ft 343 kts 172°
2026-05-04 18:40 -23.17225 -47.12323 14922 ft 338 kts 171°
2026-05-04 18:40 -23.19516 -47.11815 14216 ft 333 kts 171°
2026-05-04 18:41 -23.21773 -47.11319 13434 ft 329 kts 171°
2026-05-04 18:41 -23.24010 -47.10828 12642 ft 327 kts 171°
2026-05-04 18:41 -23.26204 -47.10345 12153 ft 316 kts 171°
2026-05-04 18:41 -23.28325 -47.09876 11747 ft 307 kts 171°
2026-05-04 18:42 -23.30381 -47.09423 11356 ft 305 kts 171°
2026-05-04 18:42 -23.32455 -47.08968 10963 ft 303 kts 171°
2026-05-04 18:42 -23.34520 -47.08515 10571 ft 303 kts 171°
2026-05-04 18:42 -23.36598 -47.08060 10205 ft 304 kts 171°
2026-05-04 18:43 -23.38697 -47.07600 9803 ft 306 kts 170°
2026-05-04 18:43 -23.40694 -47.06796 9403 ft 307 kts 151°
2026-05-04 18:43 -23.42332 -47.05310 9035 ft 307 kts 130°
2026-05-04 18:43 -23.43401 -47.03358 8726 ft 303 kts 110°
2026-05-04 18:44 -23.44002 -47.01169 8431 ft 301 kts 105°
2026-05-04 18:44 -23.44386 -46.99685 8240 ft 301 kts 105°
2026-05-04 18:44 -23.45138 -46.96782 7788 ft 301 kts 105°
2026-05-04 18:44 -23.45707 -46.94590 7390 ft 300 kts 105°
2026-05-04 18:45 -23.46273 -46.92416 7092 ft 296 kts 105°
2026-05-04 18:45 -23.46827 -46.90284 6807 ft 289 kts 105°
2026-05-04 18:45 -23.47368 -46.88192 6552 ft 284 kts 105°
2026-05-04 18:45 -23.47898 -46.86140 6305 ft 279 kts 104°
2026-05-04 18:46 -23.48422 -46.84128 6045 ft 273 kts 105°
2026-05-04 18:46 -23.48933 -46.82158 5796 ft 268 kts 105°
2026-05-04 18:46 -23.49433 -46.80228 5550 ft 262 kts 105°
2026-05-04 18:46 -23.49924 -46.78330 5303 ft 258 kts 104°
2026-05-04 18:47 -23.50405 -46.76468 5078 ft 254 kts 104°
2026-05-04 18:47 -23.50933 -46.74674 4956 ft 245 kts 116°
2026-05-04 18:47 -23.51893 -46.73215 4947 ft 230 kts 137°
2026-05-04 18:47 -23.53145 -46.72225 4901 ft 217 kts 149°
2026-05-04 18:48 -23.54418 -46.71349 4455 ft 219 kts 149°
2026-05-04 18:48 -23.55704 -46.70462 4053 ft 216 kts 148°
2026-05-04 18:48 -23.56921 -46.69621 3797 ft 199 kts 148°
2026-05-04 18:48 -23.58046 -46.68843 3569 ft 182 kts 148°
2026-05-04 18:49 -23.59052 -46.68147 3342 ft 162 kts 143°
2026-05-04 18:49 -23.59972 -46.67525 3098 ft 153 kts 148°
2026-05-04 18:49 -23.60853 -46.66907 2856 ft 152 kts 147°
2026-05-04 18:49 -23.61745 -46.66277 2697 ft 152 kts 147°
2026-05-04 18:50 -23.62629 -46.65660 2608 ft 144 kts 147°
2026-05-04 18:50 -23.63257 -46.65229 2609 ft 46 kts 148°
2026-05-04 18:50 -23.63407 -46.65221 2603 ft 13 kts 249°
2026-05-04 18:50 -23.63369 -46.65307 2602 ft 14 kts 327°
2026-05-04 18:51 -23.63279 -46.65366 2602 ft 16 kts 328°
2026-05-04 18:51 -23.63179 -46.65436 2602 ft 18 kts 327°
2026-05-04 18:51 -23.63067 -46.65511 2602 ft 18 kts 335°
2026-05-04 18:51 -23.62954 -46.65555 2603 ft 18 kts 327°
2026-05-04 18:52 -23.62841 -46.65635 2603 ft 20 kts 327°
2026-05-04 18:52 -23.62728 -46.65715 2602 ft 14 kts 327°
2026-05-04 18:52 -23.62635 -46.65773 2602 ft 16 kts 330°
2026-05-04 18:52 -23.62638 -46.65835 2601 ft 9 kts 231°
2026-05-04 18:53 -23.62649 -46.65851 2601 ft 0 kts 234°
2026-05-04 18:53 -23.62650 -46.65851 2601 ft 0 kts 234°
2026-05-04 18:53 -23.62658 -46.65865 2601 ft 1 kts 238°
2026-05-04 18:54 -23.62659 -46.65867 2601 ft 0 kts 238°